Change the Weather History Date:

Wednesday, November 20, 2013

  Actual Average Record
Temperature  
Mean Temperature 33 °F -  
Max Temperature 36 °F 40 °F 65 °F (1975)
Min Temperature 30 °F 25 °F 0 °F (2014)
Degree Days  
Heating Degree Days 32    
Moisture  
Dew Point 27 °F    
Average Humidity 80    
Maximum Humidity 99    
Minimum Humidity 62    
Precipitation  
Precipitation 0.02 in - - ()
Sea Level Pressure  
Sea Level Pressure 30.12 in    
Wind  
Wind Speed 9 mph (SSE)    
Max Wind Speed 15 mph    
Max Gust Speed 20 mph    
Visibility 8 miles    
Events Rain , Snow    
Averages and records for this station are not official NWS values.
T = Trace of Precipitation, MM = Missing Value Source: NWS Daily Summary

Daily Weather History Graph

Daily Weather History Graph

Search for Another Location

Airport or City:

Trip Planner

Search our weather history database for the weather conditions in past years. The results will help you decide how hot, cold, wet, or windy it might be!

Date:

Astronomy

Nov. 20, 2013 Rise Set
Actual Time 7:01 AM CST 4:25 PM CST
Civil Twilight 6:29 AM CST 4:57 PM CST
Nautical Twilight 5:53 AM CST 5:33 PM CST
Astronomical Twilight 5:19 AM CST 6:07 PM CST
Moon 7:08 PM CST (11/20) 9:26 AM CST (11/20)
Length of Visible Light 10h 28m
Length of Day
9h 24m
Waning Gibbous, 91% of the Moon is Illuminated
Nov 20
Waning Gibbous
Nov 25
Last Quarter
Dec 2
New
Dec 9
First Quarter
Dec 17
Full

Hourly Weather History & Observations

Time (CST) Temp. Windchill Dew Point Humidity Pressure Visibility Wind Dir Wind Speed Gust Speed Precip Events Conditions
12:15 AM 31.6 °F 23.7 °F 25.3 °F 78% 30.16 in 10.0 mi SSE 9.2 mph 16.1 mph N/A   Overcast
12:35 AM 31.1 °F 25.4 °F 25.3 °F 79% 30.16 in 10.0 mi SSE 5.8 mph - N/A   Overcast
12:55 AM 30.9 °F 22.2 °F 25.5 °F 80% 30.16 in 10.0 mi SSE 10.4 mph - N/A   Mostly Cloudy
1:15 AM 30.9 °F 22.8 °F 25.7 °F 81% 30.16 in 10.0 mi SSE 9.2 mph - N/A   Overcast
1:35 AM 31.1 °F 22.4 °F 25.9 °F 81% 30.16 in 10.0 mi SSE 10.4 mph - N/A   Overcast
1:55 AM 31.6 °F 23.7 °F 26.2 °F 80% 30.17 in 10.0 mi SSE 9.2 mph - N/A   Overcast
2:15 AM 32.0 °F 24.2 °F 26.4 °F 80% 30.17 in 10.0 mi SSE 9.2 mph 17.3 mph N/A   Overcast
2:35 AM 32.0 °F 23.6 °F 26.4 °F 80% 30.16 in 10.0 mi SSE 10.4 mph - N/A   Overcast
2:55 AM 32.0 °F 23.6 °F 26.6 °F 80% 30.16 in 10.0 mi SSE 10.4 mph - N/A   Overcast
3:15 AM 32.0 °F 24.2 °F 26.4 °F 80% 30.16 in 10.0 mi SSE 9.2 mph - N/A   Overcast
3:35 AM 32.0 °F 25.6 °F 26.6 °F 80% 30.16 in 10.0 mi SSE 6.9 mph - N/A   Overcast
3:55 AM 32.0 °F 24.2 °F 26.4 °F 80% 30.16 in 10.0 mi SSE 9.2 mph - N/A   Overcast
4:15 AM 32.0 °F 23.6 °F 26.6 °F 80% 30.15 in 10.0 mi SSE 10.4 mph - N/A   Overcast
4:35 AM 32.0 °F 23.6 °F 26.6 °F 80% 30.15 in 10.0 mi SSE 10.4 mph - N/A   Overcast
4:55 AM 32.2 °F 24.4 °F 26.6 °F 80% 30.14 in 10.0 mi SSE 9.2 mph - N/A   Overcast
5:15 AM 32.2 °F 25.0 °F 26.4 °F 79% 30.14 in 10.0 mi South 8.1 mph - N/A   Overcast
5:35 AM 32.2 °F 23.8 °F 26.2 °F 79% 30.13 in 10.0 mi SSE 10.4 mph - N/A   Overcast
5:55 AM 32.0 °F 24.8 °F 26.1 °F 79% 30.14 in 10.0 mi SSE 8.1 mph - N/A   Mostly Cloudy
6:15 AM 32.2 °F 23.8 °F 26.2 °F 79% 30.13 in 10.0 mi SSE 10.4 mph 17.3 mph N/A   Overcast
6:35 AM 32.0 °F 23.6 °F 26.2 °F 79% 30.13 in 10.0 mi SSE 10.4 mph 16.1 mph N/A   Overcast
6:55 AM 32.0 °F 22.1 °F 26.1 °F 79% 30.13 in 10.0 mi SE 13.8 mph 18.4 mph N/A   Overcast
7:15 AM 32.0 °F 23.6 °F 25.7 °F 78% 30.14 in 10.0 mi SSE 10.4 mph - N/A   Overcast
7:35 AM 32.0 °F 22.1 °F 25.7 °F 78% 30.14 in 10.0 mi SSE 13.8 mph 18.4 mph N/A   Overcast
7:55 AM 32.2 °F 23.2 °F 25.7 °F 77% 30.14 in 10.0 mi SSE 11.5 mph - N/A   Overcast
8:15 AM 32.2 °F 25.0 °F 25.9 °F 78% 30.15 in 10.0 mi SSE 8.1 mph 18.4 mph N/A   Overcast
8:35 AM 32.4 °F 24.0 °F 26.1 °F 78% 30.16 in 10.0 mi SSE 10.4 mph 18.4 mph N/A   Overcast
8:55 AM 32.5 °F 24.8 °F 26.1 °F 77% 30.15 in 10.0 mi SSE 9.2 mph 17.3 mph N/A   Overcast
9:15 AM 32.5 °F 22.7 °F 25.7 °F 76% 30.14 in 10.0 mi SE 13.8 mph 18.4 mph N/A   Overcast
9:35 AM 32.9 °F 23.2 °F 25.9 °F 75% 30.15 in 10.0 mi SSE 13.8 mph - N/A   Overcast
9:55 AM 32.9 °F 23.7 °F 25.9 °F 75% 30.15 in 10.0 mi SSE 12.7 mph 18.4 mph N/A   Overcast
10:15 AM 33.6 °F 24.6 °F 25.9 °F 73% 30.15 in 10.0 mi SSE 12.7 mph 18.4 mph N/A   Overcast
10:35 AM 33.8 °F 24.3 °F 25.7 °F 72% 30.15 in 10.0 mi SSE 13.8 mph 17.3 mph N/A   Overcast
10:55 AM 33.8 °F 24.3 °F 25.3 °F 71% 30.14 in 10.0 mi SSE 13.8 mph 19.6 mph N/A   Overcast
11:15 AM 34.7 °F 25.1 °F 24.8 °F 67% 30.14 in 10.0 mi SSE 15.0 mph - N/A   Overcast
11:35 AM 35.1 °F 27.9 °F 24.6 °F 66% 30.13 in 10.0 mi South 9.2 mph 19.6 mph N/A   Overcast
11:55 AM 35.1 °F 26.4 °F 24.8 °F 66% 30.12 in 10.0 mi SSE 12.7 mph 18.4 mph N/A   Overcast
12:15 PM 35.6 °F 27.5 °F 24.6 °F 64% 30.11 in 10.0 mi SSE 11.5 mph 17.3 mph N/A   Overcast
12:35 PM 35.6 °F 27.5 °F 24.3 °F 63% 30.11 in 10.0 mi South 11.5 mph 19.6 mph N/A   Overcast
12:55 PM 35.8 °F 27.8 °F 24.3 °F 63% 30.10 in 10.0 mi SSE 11.5 mph 18.4 mph N/A   Overcast
1:15 PM 36.1 °F 29.3 °F 24.6 °F 63% 30.10 in 10.0 mi SSE 9.2 mph 16.1 mph N/A   Overcast
1:35 PM 36.1 °F 27.7 °F 24.4 °F 63% 30.10 in 10.0 mi SSE 12.7 mph 17.3 mph N/A   Overcast
1:55 PM 36.1 °F 28.7 °F 24.4 °F 63% 30.10 in 10.0 mi SSE 10.4 mph - N/A   Overcast
2:15 PM 36.0 °F 29.0 °F 24.4 °F 63% 30.09 in 10.0 mi SSE 9.2 mph - N/A   Overcast
2:35 PM 36.0 °F 29.0 °F 23.9 °F 62% 30.09 in 10.0 mi SSE 9.2 mph - N/A   Overcast
2:55 PM 35.8 °F 30.9 °F 24.4 °F 63% 30.08 in 10.0 mi SE 5.8 mph - N/A   Overcast
3:15 PM 35.6 °F 30.7 °F 24.3 °F 63% 30.08 in 10.0 mi SE 5.8 mph - N/A   Overcast
3:35 PM 35.6 °F - 24.6 °F 64% 30.08 in 10.0 mi Calm Calm - N/A   Overcast
3:55 PM 35.2 °F 31.2 °F 24.8 °F 66% 30.09 in 10.0 mi SE 4.6 mph - N/A   Overcast
4:15 PM 34.9 °F 30.8 °F 25.2 °F 68% 30.09 in 10.0 mi SE 4.6 mph - N/A   Overcast
4:35 PM 34.9 °F 30.8 °F 25.2 °F 68% 30.09 in 10.0 mi SE 4.6 mph - N/A   Overcast
4:55 PM 34.2 °F 27.5 °F 26.1 °F 72% 30.09 in 5.0 mi SSE 8.1 mph 16.1 mph N/A Snow Heavy Snow
5:15 PM 32.5 °F 26.2 °F 28.2 °F 84% 30.09 in 5.0 mi SSE 6.9 mph - N/A Snow Light Snow
5:35 PM 32.0 °F 27.5 °F 29.1 °F 89% 30.09 in 5.0 mi ESE 4.6 mph - N/A Snow Light Snow
5:55 PM 31.6 °F 27.0 °F 29.7 °F 92% 30.09 in 3.0 mi ESE 4.6 mph - N/A Rain Light Freezing Rain
6:15 PM 31.5 °F 26.8 °F 29.8 °F 94% 30.09 in 2.5 mi SE 4.6 mph - N/A   Overcast
6:35 PM 31.1 °F 25.4 °F 30.0 °F 96% 30.09 in 2.0 mi ESE 5.8 mph - N/A   Overcast
6:55 PM 31.1 °F 25.4 °F 30.2 °F 96% 30.08 in 2.5 mi ESE 5.8 mph - N/A   Overcast
7:15 PM 31.1 °F 25.4 °F 30.2 °F 96% 30.09 in 3.0 mi SE 5.8 mph - N/A Snow Light Snow
7:35 PM 31.5 °F 25.8 °F 30.2 °F 95% 30.08 in 2.5 mi ESE 5.8 mph - N/A Snow Light Snow
7:55 PM 31.5 °F 25.8 °F 30.2 °F 95% 30.08 in 3.0 mi SE 5.8 mph - N/A   Overcast
8:15 PM 31.5 °F 26.8 °F 30.6 °F 96% 30.08 in 2.5 mi SSE 4.6 mph - N/A   Overcast
8:35 PM 31.1 °F 27.7 °F 30.4 °F 97% 30.08 in 1.8 mi SE 3.5 mph - N/A   Overcast
8:55 PM 31.1 °F 26.4 °F 30.7 °F 99% 30.07 in 2.5 mi SE 4.6 mph - N/A   Overcast
9:15 PM 31.1 °F 26.4 °F 30.7 °F 99% 30.07 in 2.5 mi SSE 4.6 mph - N/A   Overcast
9:35 PM 31.3 °F 26.6 °F 30.7 °F 98% 30.08 in 2.5 mi SSE 4.6 mph - N/A   Overcast
9:55 PM 31.1 °F 27.7 °F 30.7 °F 99% 30.07 in 2.0 mi SSE 3.5 mph - N/A   Overcast
10:15 PM 31.5 °F 28.1 °F 30.9 °F 98% 30.07 in 2.5 mi SE 3.5 mph - N/A   Overcast
10:35 PM 31.5 °F 28.1 °F 30.9 °F 98% 30.07 in 2.5 mi SSE 3.5 mph - N/A   Overcast
10:55 PM 31.5 °F 26.8 °F 30.9 °F 98% 30.08 in 2.0 mi South 4.6 mph - 0.01 in   Overcast
11:15 PM 31.6 °F 28.3 °F 31.1 °F 98% 30.09 in 2.0 mi South 3.5 mph - N/A   Overcast
11:35 PM 31.6 °F 27.0 °F 31.1 °F 98% 30.09 in 2.0 mi South 4.6 mph - 0.01 in   Overcast
11:55 PM 31.8 °F 28.5 °F 31.1 °F 97% 30.08 in 3.0 mi South 3.5 mph - 0.01 in   Overcast